Ashland, WI

12:05 PM CST on February 11, 2016 (GMT -0600)
Kennedy Memorial

Weather History for KASX - September, 2013

Change the Weather History Date:

Friday, September 13, 2013

  Actual Average Record
Temperature  
Mean Temperature 52 °F -  
Max Temperature 66 °F 69 °F 86 °F (1990)
Min Temperature 39 °F 46 °F 24 °F (1963)
Degree Days  
Heating Degree Days 14    
Growing Degree Days 2 (Base 50)    
Moisture  
Dew Point 44 °F    
Average Humidity 77    
Maximum Humidity 97    
Minimum Humidity 46    
Precipitation  
Precipitation 0.00 in - - ()
Sea Level Pressure  
Sea Level Pressure 30.23 in    
Wind  
Wind Speed 3 mph (SW)    
Max Wind Speed 5 mph    
Max Gust Speed -    
Visibility 10 miles    
Events      
Averages and records for this station are not official NWS values.
T = Trace of Precipitation, MM = Missing Value Source: NWS Daily Summary

Daily Weather History Graph

Daily Weather History Graph

Search for Another Location

Airport or City:

Trip Planner

Search our weather history database for the weather conditions in past years. The results will help you decide how hot, cold, wet, or windy it might be!

Date:

Astronomy

Sep. 13, 2013 Rise Set
Actual Time 6:39 AM CDT 7:18 PM CDT
Civil Twilight 6:08 AM CDT 7:49 PM CDT
Nautical Twilight 5:32 AM CDT 8:25 PM CDT
Astronomical Twilight 4:54 AM CDT 9:02 PM CDT
Moon 3:23 PM CDT (9/13) No Moon Set
Length of Visible Light 13h 40m
Length of Day
12h 39m
First Quarter, 61% of the Moon is Illuminated
Sep 13
First Quarter
Sep 19
Full
Sep 26
Last Quarter
Oct 4
New
Oct 11
First Quarter

Hourly Weather History & Observations

Time (CDT) Temp. Windchill Dew Point Humidity Pressure Visibility Wind Dir Wind Speed Gust Speed Precip Events Conditions
12:53 AM 46.9 °F - 44.1 °F 90% 30.26 in 10.0 mi West 3.5 mph - N/A   Mostly Cloudy
1:53 AM 45.0 °F 42.6 °F 42.1 °F 90% 30.26 in 10.0 mi West 4.6 mph - N/A   Clear
2:53 AM 43.0 °F 41.3 °F 42.1 °F 97% 30.26 in 10.0 mi WNW 3.5 mph - N/A   Clear
3:53 AM 42.1 °F 40.2 °F 41.0 °F 96% 30.27 in 10.0 mi West 3.5 mph - N/A   Clear
4:53 AM 42.1 °F 40.2 °F 41.0 °F 96% 30.27 in 10.0 mi WSW 3.5 mph - N/A   Partly Cloudy
5:53 AM 41.0 °F 39.0 °F 39.9 °F 96% 30.29 in 10.0 mi SSW 3.5 mph - N/A   Clear
6:53 AM 39.9 °F 36.7 °F 39.0 °F 97% 30.30 in 10.0 mi West 4.6 mph - N/A   Clear
7:53 AM 46.0 °F 44.8 °F 44.1 °F 93% 30.30 in 10.0 mi WSW 3.5 mph - N/A   Clear
8:53 AM 52.0 °F - 46.9 °F 83% 30.30 in 10.0 mi Calm Calm - N/A   Clear
9:53 AM 57.9 °F - 48.0 °F 70% 30.31 in 10.0 mi Calm Calm - N/A   Clear
10:53 AM 57.0 °F - 46.0 °F 67% 30.30 in 10.0 mi NNE 3.5 mph - N/A   Mostly Cloudy
11:53 AM 61.0 °F - 46.0 °F 58% 30.29 in 10.0 mi SSE 4.6 mph - N/A   Mostly Cloudy
12:53 PM 62.1 °F - 46.0 °F 56% 30.27 in 10.0 mi ENE 3.5 mph - N/A   Partly Cloudy
1:53 PM 64.0 °F - 46.9 °F 54% 30.25 in 10.0 mi NNE 4.6 mph - N/A   Partly Cloudy
2:53 PM 64.0 °F - 43.0 °F 46% 30.23 in 10.0 mi Calm Calm - N/A   Clear
3:53 PM 63.0 °F - 44.1 °F 50% 30.21 in 10.0 mi Calm Calm - N/A   Mostly Cloudy
4:53 PM 61.0 °F - 46.0 °F 58% 30.20 in 10.0 mi Calm Calm - N/A   Clear
5:53 PM 63.0 °F - 45.0 °F 52% 30.19 in 10.0 mi East 3.5 mph - N/A   Clear
6:53 PM 55.9 °F - 48.0 °F 75% 30.17 in 10.0 mi Calm Calm - N/A   Clear
7:53 PM 51.1 °F - 46.0 °F 83% 30.16 in 10.0 mi SSE 3.5 mph - N/A   Clear
8:53 PM 52.0 °F - 46.0 °F 80% 30.15 in 10.0 mi South 4.6 mph - N/A   Clear
9:53 PM 48.9 °F - 44.1 °F 83% 30.13 in 10.0 mi SSW 4.6 mph - N/A   Clear
10:53 PM 46.9 °F - 43.0 °F 86% 30.13 in 10.0 mi SSW 4.6 mph - N/A   Clear
11:53 PM 46.9 °F - 43.0 °F 86% 30.11 in 10.0 mi South 4.6 mph - N/A   Clear